sat.trackr.live / text

‹ back to catalog

KUIPER-00272

NORAD 68588 · 2026-072R

PAYLOAD ACTIVE UNKNOWN

§ Identity

Operator
Country
US
Launch date
2026-04-04
Launch site
AFETR
Launch vehicle
Mass (kg)
RCS (m²)

External: N2YO · Heavens-Above · Gunter

§ Orbital elements

Epoch: 2026-09-20T01:45:13.214304Z

Period
97.30 min
Inclination
51.8990°
Eccentricity
0.0001029
Mean motion
14.79933692 rev/d
Perigee alt
628.8 km
Apogee alt
630.3 km
Semi-major
7,007.7 km
B*
2.8035e-4
RAAN
133.5390°
Arg perigee
117.9863°
Mean anomaly
242.1204°
Rev number
2,520

§ Raw data

KUIPER-002721 68588U 26072R   26263.07306961  .00001917  00000+0  28035-3 0  99912 68588  51.8990 133.5390 0001029 117.9863 242.1204 14.79933692 25207

JSON: /api/v1/satellites/68588 · /tle

For live sub-satellite position, see the globe view (requires WebGL).

§ Visibility from observer

Set your observer location to see the next 7 days of passes ≥ 10°. The values pass through the URL so the page stays shareable.

No JS? Fill the form by hand. The geolocation button needs JavaScript.